Location: Bailleul
(50.3375°N, 2.8513°E)
Time: 08:23:36
(UTC+00:00)

USA 215 - Pass Details

Date: 16 June 2021
Orbit: 1100 x 1107 km, 123.0° (Epoch: 01 August)

Event Time Altitude Azimuth Distance (km) Brightness Sun altitude
Rises 21:36:00 0° 58° (ENE) 3,924 6.2 -10.6°
Reaches altitude 10° 21:38:45 10° 67° (ENE) 2,963 5.5 -10.8°
Maximum altitude 21:44:40 35° 132° (SE) 1,688 3.8 -11.3°
Drops below altitude 10° 21:50:33 10° 197° (SSW) 2,951 5.1 -11.7°
Sets 21:53:16 0° 205° (SSW) 3,906 5.8 -11.9°
